Wind_Speed
91 92 93 95 97 98 100 102 104 106 107 108 110 111 111 110 109 107 105 103 100 98 96 95 94 94 94 95 95 96 97 98 99 100 101 102 104 107 108 110 112 113
93 94 96 98 100 102 104 107 109 110 111 112 114 115 114 113 111 109 106 103 100 97 95 93 92 92 93 93 94 95 96 98 99 100 101 102 104 106 108 110 112 114
95 97 100 102 105 108 111 113 114 114 115 117 118 118 117 115 113 110 107 103 100 97 95 93 92 91 92 92 93 94 95 97 98 100 102 103 104 106 108 110 112 114
98 101 104 106 109 113 115 117 118 118 120 121 121 120 118 116 113 110 106 103 100 97 95 93 92 91 90 90 91 92 93 94 96 98 100 102 104 106 107 109 111 113
102 105 107 110 114 117 119 120 121 123 124 124 123 120 118 115 112 108 104 102 99 97 95 93 91 90 89 89 89 89 90 91 93 95 97 99 101 103 106 108 110 112
105 109 112 115 119 121 122 123 125 126 126 124 122 119 116 113 109 105 102 100 98 96 94 92 91 90 89 88 88 88 89 89 91 92 93 95 97 99 101 104 106 109
109 112 116 120 122 124 125 126 127 127 126 124 121 117 113 109 106 102 100 98 96 94 93 92 91 90 90 89 88 88 88 88 89 90 91 93 94 96 98 100 102 104
114 117 121 124 126 127 128 129 128 127 125 123 119 115 110 106 103 100 98 96 95 94 93 92 91 91 90 89 89 89 88 88 89 90 91 92 93 94 96 97 99 100
120 123 126 127 129 129 130 129 128 126 124 121 116 112 107 104 101 99 97 96 95 94 93 92 91 91 90 89 89 88 89 89 89 90 91 92 93 94 95 96 97 99
126 128 129 130 131 131 131 129 127 125 122 118 113 109 106 103 101 99 97 96 95 94 93 93 92 91 90 89 88 88 88 89 90 90 91 92 93 94 95 96 97 98
130 131 132 133 133 132 131 129 127 124 120 115 111 108 105 102 100 99 97 96 95 94 93 93 92 90 89 89 88 88 89 89 90 91 91 92 93 94 95 96 97 98
133 134 134 135 134 133 131 129 126 122 117 113 110 107 104 102 101 99 97 96 95 94 93 92 91 90 89 89 89 89 90 90 90 91 91 92 93 94 95 95 96 97
135 136 137 137 136 134 131 128 124 120 115 112 109 106 104 102 101 99 97 95 93 92 92 91 91 90 89 89 89 90 90 90 91 91 92 93 93 94 94 95 95 96
137 138 139 139 137 135 132 127 122 118 114 110 107 105 104 102 100 98 96 94 92 91 91 90 90 89 89 89 89 90 90 90 91 92 92 93 93 94 94 94 94 94
139 140 140 139 137 135 130 125 120 115 112 109 106 105 103 101 99 97 95 93 91 90 90 89 89 88 88 88 89 89 89 90 91 91 92 93 93 94 94 94 94 93
142 141 140 139 137 133 128 123 118 114 110 108 105 104 102 100 98 96 94 93 91 90 89 88 88 87 87 87 87 88 88 89 90 91 92 93 93 94 94 94 94 93
143 142 141 138 135 130 125 120 116 112 109 107 104 102 100 98 97 95 94 92 91 90 88 87 86 85 85 85 85 86 86 87 88 89 90 91 92 92 93 93 93 93
145 143 140 137 133 128 123 118 115 111 109 106 104 101 99 97 96 94 92 91 89 88 87 86 85 84 84 83 83 83 84 84 86 87 88 88 89 90 90 91 92 92
145 142 139 135 130 125 121 117 114 111 109 106 103 100 98 96 94 92 90 89 87 86 85 85 84 83 82 82 81 81 82 82 83 84 84 85 86 87 88 89 89 90
145 141 137 133 128 124 120 117 114 111 108 105 102 100 98 95 93 91 89 88 87 86 85 84 83 82 81 80 80 80 80 80 80 81 81 82 82 83 84 85 86 87
145 141 136 131 127 123 120 117 114 110 107 104 102 100 98 95 93 91 89 88 87 86 85 83 82 81 80 79 79 78 78 79 79 79 79 80 80 81 82 82 83 84
144 139 133 128 125 122 119 116 113 110 107 105 102 100 97 95 93 91 90 89 87 86 85 84 82 81 80 79 78 78 78 78 78 78 79 79 80 80 81 82 82 83
141 135 130 127 124 121 118 116 113 110 107 104 102 99 97 95 93 92 90 89 88 87 85 84 82 81 80 79 79 78 78 78 78 78 79 79 79 80 80 81 81 81
137 132 129 126 124 121 118 115 112 110 107 103 101 98 96 94 93 91 90 89 88 86 85 83 82 81 80 80 79 78 78 78 78 78 78 78 78 78 79 79 79 78
134 131 128 125 123 120 117 114 111 108 105 102 99 97 95 93 92 90 89 88 87 86 84 82 81 80 80 79 79 78 78 77 77 77 77 77 77 77 77 76 76 76
132 129 126 124 121 118 115 112 108 105 102 99 97 95 94 92 91 89 88 87 86 85 83 82 80 80 79 79 78 78 77 77 77 77 77 77 76 76 75 75 75 75
Wind_Direction
300 302 303 305 305 306 307 308 309 309 309 309 309 308 307 305 303 301 299 296 294 291 289 287 284 282 280 279 277 275 274 272 270 268 266 264 262 261 259 258 257 257
301 303 304 306 307 308 310 310 311 311 311 311 310 309 308 306 304 302 299 297 294 292 289 287 285 283 281 279 277 276 274 272 271 269 267 266 264 262 261 259 258 258
304 306 308 309 311 312 313 313 313 313 313 312 311 310 308 306 304 302 300 298 296 293 291 289 287 284 282 280 278 277 275 273 272 270 269 267 266 264 263 262 260 259
308 309 311 312 313 314 314 314 314 314 313 313 311 310 308 306 304 302 300 298 296 294 292 290 288 286 284 282 280 278 277 275 273 272 270 269 267 266 265 264 263 262
310 311 313 314 314 314 314 314 314 314 314 313 311 310 308 306 304 302 300 299 297 295 293 291 290 288 286 284 282 280 278 277 275 274 272 271 270 268 267 266 265 264
312 313 314 315 315 315 315 315 315 314 313 312 311 309 307 305 304 302 301 299 297 296 294 292 291 289 287 285 283 281 279 278 276 275 274 273 272 270 269 268 267 266
313 314 315 315 315 315 315 315 314 314 313 311 310 308 306 304 303 301 300 299 297 296 295 293 291 289 288 286 284 282 280 279 277 276 275 274 272 271 270 269 269 268
314 315 315 315 315 315 315 314 314 313 312 311 309 307 305 303 302 300 299 298 296 295 294 293 291 290 288 286 285 283 281 280 278 277 275 274 273 271 270 270 269 268
315 315 315 315 315 315 315 314 313 312 311 309 307 305 304 302 301 299 298 297 296 294 293 292 290 289 287 286 285 283 282 280 279 277 276 274 273 272 271 270 269 268
315 315 315 315 315 315 314 313 313 311 310 308 306 304 303 301 300 299 297 296 295 294 292 291 290 288 287 286 285 283 282 280 279 277 276 275 274 273 272 271 270 269
314 315 315 315 315 314 314 313 312 310 309 307 305 304 302 301 300 299 297 296 295 294 293 291 290 288 287 286 284 283 281 280 279 277 276 275 274 273 272 271 271 270
314 315 315 315 315 314 313 312 311 309 308 306 305 303 302 301 300 299 298 297 295 294 293 291 290 289 287 286 285 283 282 280 279 278 277 276 275 274 273 272 271 270
315 315 315 315 314 314 313 311 310 308 307 306 305 303 302 301 300 299 298 297 295 294 293 291 290 289 287 286 285 283 282 281 280 279 278 277 276 275 274 273 272 271
315 315 315 315 314 313 312 310 309 308 307 305 304 303 302 301 300 299 298 296 295 293 292 291 289 288 287 286 285 283 283 282 281 280 279 279 278 277 276 275 275 274
315 315 315 314 313 312 311 310 308 307 306 305 304 303 302 301 300 299 297 296 294 293 291 290 289 288 287 286 285 284 283 282 281 281 280 280 279 279 278 278 277 277
315 315 314 313 312 311 310 309 308 307 306 305 304 303 302 301 300 299 297 296 294 293 292 290 289 288 287 286 285 284 283 283 282 281 280 280 280 280 279 279 279 278
315 314 313 312 312 311 309 308 307 306 305 305 304 303 302 301 300 299 297 296 294 293 292 290 289 288 287 286 285 284 283 282 281 280 280 280 279 279 279 279 279 279
314 313 313 312 311 310 309 308 307 306 305 305 304 303 302 301 299 298 296 295 294 292 291 290 289 288 287 286 285 284 283 282 281 280 279 279 279 279 279 279 278 278
313 313 312 312 311 310 309 308 307 306 306 305 304 303 302 300 299 297 296 295 294 293 292 291 290 288 287 286 285 284 283 282 281 280 280 279 279 278 278 278 278 277
313 312 312 311 310 309 308 308 307 306 305 305 304 303 301 300 299 298 296 295 294 293 292 291 290 289 288 287 286 285 284 283 282 281 281 280 279 279 278 278 277 277
313 312 311 310 309 309 308 307 307 306 306 305 304 303 301 300 299 298 297 296 295 294 293 292 291 290 289 288 287 286 285 284 283 283 282 281 280 280 279 278 278 277
312 311 310 309 309 308 308 307 307 306 306 305 304 302 301 300 300 299 297 296 295 294 293 292 291 291 290 289 288 287 286 286 285 284 283 282 281 281 280 279 278 278
311 310 310 309 309 308 308 307 306 306 305 304 303 302 301 300 299 298 297 296 295 294 293 293 292 291 291 290 289 288 287 286 286 285 284 283 282 282 281 280 279 279
310 309 309 308 308 307 307 306 306 305 304 303 302 301 300 299 298 297 297 295 294 293 293 292 292 291 291 290 289 288 288 287 287 286 285 285 284 283 282 281 280 279
309 309 308 308 307 307 306 305 305 304 303 302 301 300 299 298 297 296 295 294 293 293 292 292 292 291 291 290 289 289 289 288 288 287 287 286 286 285 284 283 282 281
308 307 307 307 306 305 305 304 304 303 302 301 300 299 298 297 296 295 295 294 293 292 292 292 292 292 291 291 290 290 290 289 289 288 288 287 287 286 285 284 283 282
Height
10576 10571 10565 10560 10555 10550 10545 10540 10535 10529 10523 10518 10511 10505 10499 10492 10486 10481 10476 10471 10466 10462 10457 10452 10448 10444 10439 10435 10432 10429 10426 10424 10422 10420 10418 10417 10415 10415 10414 10414 10414 10414
10562 10556 10550 10545 10540 10535 10530 10524 10518 10513 10507 10501 10494 10487 10481 10474 10468 10462 10457 10452 10448 10443 10439 10435 10431 10427 10424 10420 10417 10414 10411 10408 10406 10404 10402 10400 10399 10398 10397 10396 10396 10396
10547 10541 10535 10530 10524 10518 10513 10507 10501 10496 10490 10484 10477 10470 10462 10455 10449 10443 10437 10433 10428 10424 10421 10418 10414 10411 10407 10404 10401 10398 10395 10393 10390 10388 10386 10384 10382 10381 10380 10378 10378 10377
10532 10526 10521 10515 10509 10503 10497 10491 10485 10479 10473 10466 10459 10452 10445 10437 10431 10425 10419 10414 10410 10406 10403 10400 10397 10394 10391 10388 10385 10382 10380 10377 10374 10372 10370 10368 10366 10365 10363 10362 10361 10360
10518 10512 10507 10501 10495 10488 10483 10477 10470 10464 10457 10450 10443 10435 10427 10420 10414 10408 10403 10398 10393 10389 10386 10383 10380 10377 10375 10372 10369 10367 10364 10361 10359 10356 10354 10352 10350 10349 10347 10346 10345 10343
10505 10499 10493 10487 10481 10475 10470 10463 10457 10450 10442 10435 10427 10419 10411 10404 10398 10392 10386 10381 10377 10373 10369 10366 10363 10361 10358 10356 10354 10351 10349 10346 10343 10340 10338 10336 10334 10333 10331 10329 10328 10327
10491 10485 10480 10474 10468 10462 10456 10449 10442 10435 10427 10419 10411 10404 10396 10389 10383 10377 10371 10366 10362 10358 10354 10350 10347 10344 10342 10339 10337 10335 10333 10330 10328 10325 10323 10320 10318 10316 10314 10313 10311 10310
10477 10472 10466 10461 10455 10449 10442 10435 10427 10420 10412 10403 10395 10388 10381 10374 10368 10362 10357 10352 10348 10343 10339 10335 10332 10329 10326 10323 10321 10318 10316 10314 10311 10309 10306 10304 10302 10299 10298 10296 10294 10293
10462 10458 10453 10447 10441 10434 10427 10420 10412 10404 10396 10387 10379 10372 10365 10358 10353 10347 10342 10338 10333 10329 10325 10320 10317 10314 10311 10308 10306 10303 10300 10297 10294 10292 10289 10287 10285 10282 10281 10279 10278 10277
10447 10443 10439 10433 10426 10419 10411 10403 10396 10388 10379 10371 10363 10356 10349 10343 10337 10333 10328 10323 10319 10314 10309 10305 10301 10299 10296 10293 10291 10287 10284 10281 10278 10275 10273 10270 10268 10266 10264 10263 10261 10260
10433 10429 10424 10417 10409 10402 10394 10386 10378 10370 10362 10354 10347 10340 10333 10328 10322 10317 10313 10308 10304 10299 10294 10289 10286 10283 10281 10278 10275 10272 10268 10265 10262 10259 10257 10254 10252 10249 10248 10246 10244 10243
10419 10414 10408 10400 10392 10384 10376 10369 10360 10353 10345 10338 10331 10324 10318 10312 10307 10302 10298 10294 10289 10284 10278 10274 10270 10268 10265 10262 10259 10255 10252 10249 10246 10243 10240 10237 10235 10233 10231 10230 10228 10226
10405 10398 10391 10382 10374 10366 10359 10351 10344 10336 10329 10322 10315 10309 10302 10297 10292 10287 10283 10279 10274 10269 10264 10259 10255 10253 10250 10247 10243 10239 10235 10233 10230 10226 10223 10220 10218 10216 10215 10213 10212 10209
10391 10383 10374 10365 10357 10349 10341 10335 10327 10321 10314 10307 10300 10294 10287 10282 10277 10272 10268 10263 10259 10254 10249 10245 10241 10238 10235 10232 10228 10224 10221 10218 10214 10210 10207 10204 10201 10199 10198 10196 10195 10194
10376 10368 10359 10349 10340 10332 10325 10318 10311 10305 10298 10292 10285 10279 10273 10267 10261 10256 10252 10247 10243 10239 10234 10230 10226 10223 10221 10217 10213 10209 10206 10203 10199 10195 10191 10188 10186 10183 10181 10180 10179 10178
10360 10351 10342 10333 10323 10315 10308 10301 10295 10288 10282 10276 10270 10264 10258 10252 10246 10241 10236 10231 10227 10222 10218 10214 10211 10209 10205 10202 10198 10195 10193 10189 10185 10181 10177 10174 10172 10169 10167 10165 10163 10162
10342 10334 10325 10315 10306 10299 10291 10284 10278 10272 10266 10260 10254 10248 10242 10236 10231 10225 10220 10215 10211 10207 10203 10199 10196 10194 10191 10187 10184 10181 10179 10176 10171 10167 10163 10161 10158 10155 10153 10150 10148 10146
10324 10316 10307 10298 10289 10281 10274 10267 10260 10254 10248 10243 10238 10232 10227 10221 10216 10211 10205 10201 10196 10192 10188 10185 10182 10179 10176 10172 10170 10167 10164 10162 10157 10154 10151 10148 10146 10143 10140 10136 10134 10132
10305 10298 10290 10281 10272 10263 10256 10249 10243 10237 10231 10226 10221 10216 10211 10205 10200 10196 10190 10186 10181 10177 10173 10170 10167 10164 10161 10158 10156 10153 10150 10147 10144 10141 10139 10136 10133 10130 10127 10124 10121 10119
10287 10279 10271 10263 10255 10246 10239 10232 10226 10221 10215 10210 10205 10199 10194 10189 10184 10180 10175 10170 10166 10163 10159 10155 10152 10149 10147 10144 10141 10139 10136 10133 10130 10128 10126 10124 10120 10117 10114 10111 10108 10106
10269 10261 10254 10247 10239 10231 10224 10217 10210 10205 10199 10194 10188 10183 10177 10173 10168 10164 10160 10155 10151 10148 10145 10141 10138 10135 10132 10130 10127 10124 10122 10119 10116 10115 10112 10110 10107 10103 10101 10098 10095 10093
10253 10245 10238 10230 10223 10216 10208 10201 10195 10189 10184 10179 10173 10168 10163 10158 10153 10149 10145 10141 10137 10133 10130 10127 10124 10121 10118 10116 10113 10110 10108 10105 10103 10101 10098 10096 10093 10090 10087 10084 10082 10080
10237 10229 10221 10214 10207 10200 10193 10187 10181 10175 10170 10165 10159 10154 10149 10144 10140 10135 10131 10127 10123 10120 10117 10114 10111 10108 10105 10102 10100 10097 10095 10093 10090 10088 10085 10082 10079 10077 10074 10071 10068 10066
10222 10213 10206 10198 10192 10185 10179 10173 10168 10162 10157 10151 10146 10141 10136 10131 10127 10123 10118 10114 10110 10107 10104 10102 10099 10095 10092 10089 10086 10084 10083 10080 10078 10075 10071 10069 10066 10063 10060 10057 10055 10053
10207 10199 10192 10185 10178 10172 10166 10160 10155 10149 10144 10139 10134 10129 10124 10119 10115 10111 10106 10102 10098 10094 10092 10090 10087 10083 10079 10076 10073 10071 10070 10067 10065 10061 10058 10056 10053 10049 10046 10044 10042 10040
10193 10186 10179 10172 10165 10159 10153 10148 10142 10136 10131 10126 10121 10116 10111 10107 10102 10098 10094 10089 10085 10082 10079 10077 10075 10071 10066 10063 10061 10058 10057 10054 10052 10048 10045 10043 10040 10036 10033 10031 10029 10027